Location: Madden
(51.3728°N, 114.3297°W)
Time: 07:10:13
(UTC+00:00)

PCSat - Pass Details

Date: 11 December 2023
Orbit: 784 x 791 km, 67.0° (Epoch: 02 March)

Event Time Altitude Azimuth Distance (km) Brightness Sun altitude
Exits shadow 12:47:34 24° 351° (N) 1,579 10.9 -24.3°
Drops below altitude 10° 12:50:54 10° 27° (NNE) 2,363 12.2 -23.8°
Sets 12:53:43 0° 39° (NE) 3,296 13.2 -23.4°
